Regional Weather Roundup
Issued by NWS

Home | Current Version | Previous Version | Graphics & Text | Print | Product List | Glossary On
Versions: 1 2 3 4 5 6 7 8 9 10 11 12 13 14 15 16 17 18 19 20 21 22 23 24 25 26 27 28 29 30 31 32 33 34 35 36 37 38 39 40 41 42 43 44 45 46 47 48 49 50
000
ASUS43 KIND 240709
RWRIN

WEATHER ROUNDUP FOR INDIANA
NATIONAL WEATHER SERVICE INDIANAPOLIS IN
200 AM EST FRI FEB 24 2017

NOTE: "FAIR" INDICATES FEW OR NO CLOUDS BELOW 12,000 FEET WITH NO
SIGNIFICANT WEATHER AND/OR OBSTRUCTIONS TO VISIBILITY.

* - STATION DOES NOT REPORT WEATHER SUCH AS PRECIPITATION OR FOG.

+ - STATION NOT QUALITY CONTROLLED BY THE NATIONAL WEATHER SERVICE.
    USE DATA WITH CAUTION...ESPECIALLY DEWPOINT AND RELATIVE
    HUMIDITY OBSERVATIONS.

INZ001>003-010>013-019-020-240800-
NORTHWEST INDIANA

CITY           SKY/WX    TMP DP  RH WIND       PRES   REMARKS
GARY /AIRPORT/ CLOUDY    41  40  97 N7        29.62F
KNOX *+        MOCLDY    52  37  58 SE9       29.59F
LA PORTE +     MOCLDY    47  46  95 E9        29.61F THUNDER FOG
MICHIGAN CITY+ CLOUDY    50  50 100 SE8       29.60F
MONTICELLO +   CLOUDY    53  50  90 E3        29.62F
RENSSELAER +   CLOUDY    55  54  94 SE14G21   29.58S THUNDER
VALPARAISO     LGT RAIN  49  48  97 NE7       29.62F FOG

$$

LMZ046-743>745-240800-
SOUTHERN LAKE MICHIGAN

STATION/POSITION TIME  TEMP    WIND        PRES    WAVE
                       AIR SEA DIR/SP/G            HT
                 (UTC) (F)     (DEG/KT/KT) (MB)    (FT)
BURNS HARBOR     0630   37      60/  7/  8 1003.4F
MICHIGAN CITY    0640   48      80/  8/ 12   N/A

$$

INZ004-005-014>016-021>024-240800-
NORTH CENTRAL INDIANA

CITY           SKY/WX    TMP DP  RH WIND       PRES   REMARKS
GOSHEN         LGT RAIN  52  46  80 E10       29.64F
LOGANSPORT +   CLOUDY    55  54  94 SE7       29.64F
PERU/GRISSOM   CLOUDY    57  57 100 SE10      29.64F
ROCHESTER +    CLOUDY    57  54  88 SE8       29.65F
SOUTH BEND     MOCLDY    49  47  93 E8        29.65F FOG
WARSAW +       LGT RAIN  52  48  87 SE10      29.64F

$$

INZ006>009-017-018-025>027-240800-
NORTHEAST INDIANA

CITY           SKY/WX    TMP DP  RH WIND       PRES   REMARKS
ANGOLA *+      MOCLDY    45  45 100 SE15      29.67F
AUBURN +       PTCLDY    46  43  87 NE7G13    29.72F
FORT WAYNE     TSTM      55  52  89 NE8       29.69F FOG
HUNTINGTON +   CLOUDY    55  54  95 E3        29.67F THUNDER
KENDALLVILLE + CLOUDY    46  45  93 SE15      29.68F

$$

INZ028-029-035-036-043>045-051>053-240800-
WEST CENTRAL INDIANA

CITY           SKY/WX    TMP DP  RH WIND       PRES   REMARKS
LAFAYETTE      CLOUDY    56  54  93 SE6       29.62F
TERRE HAUTE    CLOUDY    61  53  75 S9        29.63R

$$

INZ030>032-037>040-046>048-054>057-064-065-240800-
CENTRAL INDIANA

CITY           SKY/WX    TMP DP  RH WIND       PRES   REMARKS
CP ATTERBURY + PTCLDY    59  54  82 SE7       29.68F
FRANKFORT +    CLOUDY    59  56  89 S6        29.66S THUNDER
GREENWOOD *+   PTCLDY    59  56  88 S9        29.68S
INDIANAPOLIS   MOCLDY    60  54  80 SE13      29.64F
-EAGLE CREEK   PTCLDY    61  54  77 SE7       29.64F
KOKOMO +       CLOUDY    58  55  90 SE9       29.67F
MARION +       MOCLDY    57  53  89 S8        29.68F
MT COMFORT *+  PTCLDY    59  54  82 S9G17     29.67F
SHELBYVILLE    PTCLDY    61  54  77 S14       29.67F
ZIONSVILLE +   PTCLDY    59  55  84 S8        29.66S

$$

INZ033-034-041-042-049-050-058-059-240800-
EAST CENTRAL INDIANA

CITY           SKY/WX    TMP DP  RH WIND       PRES   REMARKS
MUNCIE         CLOUDY    60  54  80 SE7       29.68F

$$

INZ060-061-067>069-081>083-085>088-240800-
SOUTHWEST INDIANA

CITY           SKY/WX    TMP DP  RH WIND       PRES   REMARKS
EVANSVILLE     CLOUDY    63  54  72 S9        29.65F
HUNTINGBURG *+ CLOUDY    64  55  72 S13       29.67S
WASHINGTON +   MOCLDY    63  53  71 S16G22    29.63F

$$

INZ062-063-066-070>080-084-089>092-240800-
SOUTH CENTRAL AND SOUTHEAST INDIANA

CITY           SKY/WX    TMP DP  RH WIND       PRES   REMARKS
BEDFORD +      PTCLDY   N/A N/A N/A S7        29.67F
BLOOMINGTON    MOCLDY    60  52  74 SE9       29.64F
MADISON *+     CLOUDY    61  54  77 SE6       29.73S
NORTH VERNON + CLOUDY    63  55  77 S7        29.71S
SEYMOUR +      CLOUDY    61  54  77 SE8       29.69S

$$





USA.gov is the U.S. government's official web portal to all federal, state and local government web resources and services.